Back to catalog

FENGYUN 1C DEB

LostSSO
NORAD 37897·DEBRIS·🇨🇳 China

Launched May 10, 1999 from Taiyuan Satellite Launch Center

Loading…

Next Passes (next 24 hours)

TLE

StaleSource: Space-Track

Epoch: Aug 12, 2014, 06:37 UTC

1 37897U 99025EMW 14224.27620123  .00001729  00000-0  87439-3 0  9998
2 37897  98.8992 244.6642 0019329 285.3010  84.7434 14.17394333328047

Track FENGYUN 1C DEB in real time with AllMySat

Download on the App Store